• In Uzbekistan
  • List of Countries
  • For 7 days
  • Water Temperature
  • Weather Map
  • Weather Widgets
  • user-avatar
    Login

    Hourly Weather Cuiaba

    Today, 19 January, Sunday

    Time Temperature Precipitation Wind Pressure Humidity
    00:00 +28°C° 0.5 mm 1 mps 739 mmHg 76%
    01:00 +27°C° 0.5 mm 1 mps 739 mmHg 81%
    02:00 +26°C° 0.5 mm 1 mps 739 mmHg 86%
    03:00 +26°C° 0.5 mm 1 mps 739 mmHg 87%
    04:00 +23°C° 0.5 mm 0 mps 739 mmHg 88%
    05:00 +23°C° 0.5 mm 0 mps 739 mmHg 90%
    06:00 +25°C° 0 mm 0 mps 740 mmHg 85%
    07:00 +26°C° 0 mm 0 mps 740 mmHg 81%
    08:00 +29°C° 0 mm 1 mps 741 mmHg 77%
    09:00 +31°C° 0.3 mm 1 mps 741 mmHg 69%
    10:00 +33°C° 0.3 mm 1 mps 741 mmHg 62%
    11:00 +35°C° 0.3 mm 1 mps 741 mmHg 54%
    12:00 +35°C° 0.1 mm 1 mps 740 mmHg 53%
    13:00 +36°C° 0.1 mm 1 mps 739 mmHg 51%
    14:00 +36°C° 0.1 mm 1 mps 738 mmHg 49%
    15:00 +35°C° 0 mm 1 mps 738 mmHg 52%
    16:00 +35°C° 0 mm 1 mps 738 mmHg 55%
    17:00 +34°C° 0 mm 1 mps 737 mmHg 58%
    18:00 +32°C° 0.1 mm 1 mps 737 mmHg 65%
    19:00 +30°C° 0.1 mm 1 mps 738 mmHg 72%
    20:00 +26°C° 0.1 mm 0 mps 738 mmHg 78%
    21:00 +26°C° 0.1 mm 0 mps 738 mmHg 79%
    22:00 +26°C° 0.1 mm 0 mps 739 mmHg 81%
    23:00 +25°C° 0.1 mm 0 mps 739 mmHg 82%

    Tomorrow, 20 January, Monday

    Time Temperature Precipitation Wind Pressure Humidity
    00:00 +25°C° 0 mm 0 mps 738 mmHg 82%
    01:00 +25°C° 0 mm 0 mps 738 mmHg 83%
    02:00 +25°C° 0 mm 0 mps 738 mmHg 83%
    03:00 +27°C° 0 mm 1 mps 738 mmHg 84%
    04:00 +26°C° 0 mm 1 mps 738 mmHg 84%
    05:00 +26°C° 0 mm 1 mps 738 mmHg 85%
    06:00 +28°C° 0 mm 1 mps 738 mmHg 80%
    07:00 +29°C° 0 mm 1 mps 739 mmHg 75%
    08:00 +31°C° 0 mm 1 mps 739 mmHg 70%
    09:00 +33°C° 0.2 mm 1 mps 739 mmHg 62%
    10:00 +36°C° 0.2 mm 2 mps 739 mmHg 55%
    11:00 +37°C° 0.2 mm 2 mps 739 mmHg 48%
    12:00 +37°C° 0 mm 2 mps 738 mmHg 48%
    13:00 +37°C° 0 mm 2 mps 737 mmHg 48%
    14:00 +37°C° 0 mm 2 mps 736 mmHg 48%
    15:00 +37°C° 0 mm 2 mps 736 mmHg 51%
    16:00 +36°C° 0 mm 2 mps 736 mmHg 54%
    17:00 +36°C° 0 mm 2 mps 735 mmHg 57%
    18:00 +33°C° 0 mm 1 mps 736 mmHg 61%
    19:00 +31°C° 0 mm 1 mps 736 mmHg 65%
    20:00 +30°C° 0 mm 1 mps 736 mmHg 69%
    21:00 +29°C° 0 mm 1 mps 737 mmHg 71%
    22:00 +29°C° 0 mm 1 mps 737 mmHg 72%
    23:00 +29°C° 0 mm 1 mps 737 mmHg 74%

    Day after tomorrow, 21 January, Tuesday

    Time Temperature Precipitation Wind Pressure Humidity
    00:00 +28°C° 0 mm 1 mps 737 mmHg 76%
    01:00 +28°C° 0 mm 1 mps 736 mmHg 77%
    02:00 +28°C° 0 mm 1 mps 736 mmHg 79%
    03:00 +27°C° 0 mm 1 mps 736 mmHg 80%
    04:00 +27°C° 0 mm 1 mps 736 mmHg 81%
    05:00 +27°C° 0 mm 1 mps 736 mmHg 82%
    06:00 +28°C° 0 mm 2 mps 737 mmHg 78%
    07:00 +29°C° 0 mm 2 mps 737 mmHg 75%
    08:00 +30°C° 0 mm 3 mps 738 mmHg 72%
    09:00 +33°C° 0.2 mm 3 mps 738 mmHg 67%
    10:00 +34°C° 0.2 mm 3 mps 737 mmHg 62%
    11:00 +35°C° 0.2 mm 3 mps 737 mmHg 57%
    12:00 +35°C° 0.7 mm 3 mps 736 mmHg 60%
    13:00 +34°C° 0.7 mm 3 mps 735 mmHg 62%
    14:00 +34°C° 0.7 mm 3 mps 735 mmHg 64%
    15:00 +34°C° 0.3 mm 3 mps 734 mmHg 65%
    16:00 +34°C° 0.3 mm 3 mps 734 mmHg 65%
    17:00 +34°C° 0.3 mm 2 mps 734 mmHg 66%
    18:00 +31°C° 0 mm 2 mps 734 mmHg 70%
    19:00 +30°C° 0 mm 2 mps 734 mmHg 74%
    20:00 +29°C° 0 mm 2 mps 735 mmHg 78%
    21:00 +29°C° 0 mm 2 mps 735 mmHg 78%
    22:00 +28°C° 0 mm 2 mps 736 mmHg 79%
    23:00 +28°C° 0 mm 2 mps 736 mmHg 80%

    22 January, Wednesday

    Time Temperature Precipitation Wind Pressure Humidity
    00:00 +28°C° 0.1 mm 2 mps 736 mmHg 80%
    01:00 +28°C° 0.1 mm 2 mps 735 mmHg 80%
    02:00 +27°C° 0.1 mm 3 mps 735 mmHg 80%
    03:00 +27°C° 0 mm 3 mps 735 mmHg 81%
    04:00 +27°C° 0 mm 2 mps 735 mmHg 81%
    05:00 +27°C° 0 mm 2 mps 736 mmHg 82%
    06:00 +28°C° 0.2 mm 3 mps 736 mmHg 79%
    07:00 +29°C° 0.2 mm 3 mps 736 mmHg 77%
    08:00 +30°C° 0.2 mm 3 mps 737 mmHg 74%
    09:00 +31°C° 1.1 mm 3 mps 737 mmHg 70%
    10:00 +34°C° 1.1 mm 4 mps 737 mmHg 66%
    11:00 +35°C° 1.1 mm 4 mps 737 mmHg 62%
    12:00 +34°C° 2.8 mm 4 mps 736 mmHg 67%
    13:00 +33°C° 2.8 mm 4 mps 735 mmHg 72%
    14:00 +31°C° 2.8 mm 3 mps 735 mmHg 78%
    15:00 +30°C° 2.5 mm 3 mps 735 mmHg 82%
    16:00 +29°C° 2.5 mm 2 mps 734 mmHg 86%
    17:00 +27°C° 2.5 mm 1 mps 734 mmHg 91%
    18:00 +27°C° 0.1 mm 1 mps 734 mmHg 92%
    19:00 +27°C° 0.1 mm 1 mps 735 mmHg 93%
    20:00 +26°C° 0.1 mm 2 mps 735 mmHg 94%
    21:00 +26°C° 0.1 mm 2 mps 735 mmHg 93%
    22:00 +26°C° 0.1 mm 2 mps 735 mmHg 93%
    23:00 +26°C° 0.1 mm 2 mps 736 mmHg 92%

    23 January, Thursday

    Time Temperature Precipitation Wind Pressure Humidity
    00:00 +26°C° 0.3 mm 2 mps 735 mmHg 93%
    01:00 +26°C° 0.3 mm 2 mps 735 mmHg 93%
    02:00 +25°C° 0.3 mm 3 mps 734 mmHg 94%
    03:00 +25°C° 0.7 mm 2 mps 735 mmHg 94%
    04:00 +25°C° 0.7 mm 2 mps 735 mmHg 95%
    05:00 +25°C° 0.7 mm 2 mps 735 mmHg 96%
    06:00 +26°C° 0.1 mm 2 mps 735 mmHg 94%
    07:00 +26°C° 0.1 mm 2 mps 736 mmHg 93%
    08:00 +27°C° 0.1 mm 3 mps 736 mmHg 92%
    09:00 +28°C° 0.9 mm 3 mps 736 mmHg 88%
    10:00 +29°C° 0.9 mm 3 mps 736 mmHg 85%
    11:00 +31°C° 0.9 mm 3 mps 736 mmHg 81%
    12:00 +31°C° 1.9 mm 3 mps 735 mmHg 80%
    13:00 +31°C° 1.9 mm 3 mps 735 mmHg 80%
    14:00 +31°C° 1.9 mm 2 mps 734 mmHg 80%
    15:00 +31°C° 1.3 mm 2 mps 734 mmHg 82%
    16:00 +30°C° 1.3 mm 2 mps 733 mmHg 84%
    17:00 +30°C° 1.3 mm 2 mps 733 mmHg 86%
    18:00 +29°C° 0.2 mm 2 mps 734 mmHg 88%
    19:00 +28°C° 0.2 mm 2 mps 734 mmHg 91%
    20:00 +26°C° 0.2 mm 2 mps 734 mmHg 93%
    21:00 +26°C° 0 mm 2 mps 735 mmHg 93%
    22:00 +26°C° 0 mm 2 mps 735 mmHg 94%
    23:00 +26°C° 0 mm 2 mps 735 mmHg 94%

    24 January, Friday

    Time Temperature Precipitation Wind Pressure Humidity
    00:00 +25°C° 0 mm 2 mps 735 mmHg 94%
    01:00 +25°C° 0 mm 2 mps 734 mmHg 94%
    02:00 +25°C° 0 mm 3 mps 734 mmHg 95%
    03:00 +25°C° 0.1 mm 2 mps 734 mmHg 95%
    04:00 +25°C° 0.1 mm 2 mps 735 mmHg 95%
    05:00 +25°C° 0.1 mm 2 mps 735 mmHg 96%
    06:00 +26°C° 0.2 mm 2 mps 736 mmHg 92%
    07:00 +27°C° 0.2 mm 2 mps 736 mmHg 89%
    08:00 +28°C° 0.2 mm 2 mps 737 mmHg 86%
    09:00 +30°C° 0.4 mm 2 mps 737 mmHg 76%
    10:00 +32°C° 0.4 mm 2 mps 736 mmHg 67%
    11:00 +35°C° 0.4 mm 2 mps 736 mmHg 57%
    12:00 +36°C° 0 mm 2 mps 736 mmHg 54%
    13:00 +36°C° 0 mm 2 mps 735 mmHg 51%
    14:00 +37°C° 0 mm 2 mps 734 mmHg 47%
    15:00 +36°C° 0 mm 2 mps 734 mmHg 52%
    16:00 +35°C° 0 mm 2 mps 734 mmHg 56%
    17:00 +34°C° 0 mm 2 mps 733 mmHg 61%
    18:00 +32°C° 0 mm 2 mps 734 mmHg 63%
    19:00 +30°C° 0 mm 2 mps 735 mmHg 65%
    20:00 +28°C° 0 mm 2 mps 736 mmHg 68%
    21:00 +28°C° 0 mm 2 mps 736 mmHg 72%
    22:00 +27°C° 0 mm 3 mps 737 mmHg 77%
    23:00 +27°C° 0 mm 3 mps 737 mmHg 81%
    Show more